{"data":{"norad_id":60197,"intl_designator":"2024-124Q","name":"STARLINK-32023","alt_names":[],"object_type":"PAYLOAD","status":"ACTIVE","operator":null,"country":"US","launch_date":"2024-07-03","launch_site_code":"AFETR","launch_vehicle":null,"mission":null,"orbit_class":"UNKNOWN","rcs_meters":null,"size_class":null,"mass_kg":null,"dimensions":null,"purposes":["comms"],"wikipedia_slug":null,"has_3d_model":false,"image_url":null,"decayed_at":null,"tle_current":{"epoch":"2026-05-24T18:43:02.658432Z","epoch_age_seconds":90173,"freshness":"FRESH","line1":"1 60197U 24124Q   26144.77989188  .00000862  00000+0  36662-4 0  9992","line2":"2 60197  53.1602 328.4889 0001176  80.9077 279.2059 15.34388517105959","mean_motion":15.34388517,"eccentricity":0.0001176,"inclination_deg":53.1602,"raan_deg":328.4889,"arg_perigee_deg":80.9077,"mean_anomaly_deg":279.2059,"bstar":3.6662e-5,"rev_number":10595,"period_min":93.848460415714,"perigee_km":461.93288348994,"apogee_km":463.54185714184,"semimajor_km":6840.8743703159,"source":"CELESTRAK","updated_at":"2026-05-25T13:38:19.196442Z"}}}